sat.trackr.live / text

‹ back to catalog

STARLINK-1042

NORAD 44747 · 2019-074AL

PAYLOAD ACTIVE UNKNOWN

§ Identity

Operator
Country
US
Launch date
2019-11-11
Launch site
AFETR
Launch vehicle
Mass (kg)
RCS (m²)

Purposes: comms

External: N2YO · Heavens-Above · Gunter

§ Orbital elements

Epoch: 2026-09-15T00:48:35.265600Z

Period
92.25 min
Inclination
53.0387°
Eccentricity
0.0005680
Mean motion
15.60920561 rev/d
Perigee alt
381.2 km
Apogee alt
388.8 km
Semi-major
6,763.1 km
B*
4.1134e-4
RAAN
259.6041°
Arg perigee
38.8651°
Mean anomaly
321.2769°
Rev number
37,952

§ Raw data

STARLINK-10421 44747U 19074AL  26258.03374150  .00034727  00000+0  41134-3 0  99912 44747  53.0387 259.6041 0005680  38.8651 321.2769 15.60920561379522

JSON: /api/v1/satellites/44747 · /tle

For live sub-satellite position, see the globe view (requires WebGL).

§ Visibility from observer

Set your observer location to see the next 7 days of passes ≥ 10°. The values pass through the URL so the page stays shareable.

No JS? Fill the form by hand. The geolocation button needs JavaScript.